Cleveland, OH

5:43 PM EDT on July 28, 2016 (GMT -0400)
Burke Lakefront

Weather History for KBKL - February, 2014

Change the Weather History Date:

Sunday, February 16, 2014

  Actual Average Record
Temperature  
Mean Temperature 14 °F -  
Max Temperature 21 °F 37 °F 63 °F (2006)
Min Temperature 6 °F 25 °F -2 °F (2015)
Degree Days  
Heating Degree Days 52    
Moisture  
Dew Point 13 °F    
Average Humidity 85    
Maximum Humidity 100    
Minimum Humidity 73    
Precipitation  
Precipitation 0.00 in - - ()
Sea Level Pressure  
Sea Level Pressure 30.10 in    
Wind  
Wind Speed 6 mph (WNW)    
Max Wind Speed 12 mph    
Max Gust Speed -    
Visibility 4 miles    
Events Fog , Snow    
Averages and records for this station are not official NWS values.
T = Trace of Precipitation, MM = Missing Value Source: NWS Daily Summary

Daily Weather History Graph

Daily Weather History Graph

Search for Another Location

Airport or City:

Trip Planner

Search our weather history database for the weather conditions in past years. The results will help you decide how hot, cold, wet, or windy it might be!

Date:

Astronomy

Feb. 16, 2014 Rise Set
Actual Time 7:20 AM EST 6:01 PM EST
Civil Twilight 6:52 AM EST 6:30 PM EST
Nautical Twilight 6:19 AM EST 7:02 PM EST
Astronomical Twilight 5:47 AM EST 7:34 PM EST
Moon 7:59 PM EST (2/16) 7:47 AM EST (2/16)
Length of Visible Light 11h 37m
Length of Day
10h 41m
Full, 97% of the Moon is Illuminated
Feb 16
Full
Feb 22
Last Quarter
Mar 1
New
Mar 8
First Quarter
Mar 16
Full

Hourly Weather History & Observations

Time (EST) Temp. Windchill Dew Point Humidity Pressure Visibility Wind Dir Wind Speed Gust Speed Precip Events Conditions
12:53 AM 12.9 °F 5.2 °F 7.0 °F 77% 30.08 in 10.0 mi SSE 4.6 mph - N/A   Clear
1:53 AM 14.0 °F 3.9 °F 8.1 °F 77% 30.07 in 9.0 mi South 6.9 mph - N/A   Clear
2:29 AM 14.0 °F 3.9 °F 8.6 °F 79% 30.03 in 9.0 mi SSE 6.9 mph - N/A   Mostly Cloudy
2:53 AM 14.0 °F 6.5 °F 8.1 °F 77% 30.05 in 9.0 mi SSE 4.6 mph - N/A   Scattered Clouds
3:53 AM 12.9 °F 1.6 °F 8.1 °F 81% 30.04 in 10.0 mi SSE 8.1 mph - N/A   Partly Cloudy
4:53 AM 14.0 °F 2.0 °F 8.1 °F 77% 30.02 in 9.0 mi SSE 9.2 mph - N/A   Clear
5:53 AM 14.0 °F 2.9 °F 8.1 °F 77% 30.00 in 10.0 mi SSE 8.1 mph - N/A   Overcast
6:53 AM 16.0 °F 3.6 °F 10.0 °F 77% 30.00 in 9.0 mi SSE 10.4 mph - N/A   Overcast
7:53 AM 17.1 °F 6.6 °F 10.0 °F 74% 30.00 in 8.0 mi SE 8.1 mph - N/A   Overcast
8:05 AM 17.6 °F 7.3 °F 10.4 °F 73% 29.97 in 9.0 mi SE 8.1 mph - N/A   Overcast
8:53 AM 18.0 °F 9.8 °F 12.0 °F 78% 30.01 in 2.5 mi SSE 5.8 mph - 0.00 in Snow Light Snow
8:57 AM 17.6 °F 7.3 °F 12.2 °F 79% 29.98 in 1.5 mi SE 8.1 mph - 0.00 in Snow Light Snow
9:51 AM 17.6 °F 8.2 °F 15.8 °F 93% 30.00 in 0.8 mi South 6.9 mph - 0.00 in Snow Light Snow
9:53 AM 18.0 °F 8.7 °F 15.1 °F 88% 30.03 in 0.8 mi South 6.9 mph - 0.00 in Snow Light Snow
10:33 AM 19.4 °F 14.3 °F 17.6 °F 93% 29.99 in 1.0 mi SSE 3.5 mph - 0.00 in Snow Light Snow
10:53 AM 19.9 °F 14.9 °F 18.0 °F 92% 30.03 in 1.2 mi South 3.5 mph - 0.00 in Snow Light Snow
11:51 AM 21.2 °F - 17.6 °F 86% 29.99 in 2.5 mi Calm Calm - 0.00 in Snow Light Snow
11:53 AM 21.0 °F - 18.0 °F 88% 30.02 in 2.5 mi Calm Calm - 0.00 in Snow Light Snow
12:06 PM 21.2 °F 16.4 °F 17.6 °F 86% 30.00 in 1.8 mi WNW 3.5 mph - 0.00 in Snow Light Snow
12:16 PM 21.2 °F 14.9 °F 17.6 °F 86% 30.00 in 2.0 mi WNW 4.6 mph - 0.00 in Snow Light Snow
12:53 PM 21.9 °F 14.5 °F 18.0 °F 85% 30.03 in 2.5 mi West 5.8 mph - 0.00 in Snow Light Snow
1:18 PM 21.2 °F 11.7 °F 17.6 °F 86% 30.00 in 2.0 mi West 8.1 mph - 0.00 in Snow Light Snow
1:34 PM 21.2 °F 11.7 °F 17.6 °F 86% 30.00 in 3.0 mi WNW 8.1 mph - 0.00 in Snow Light Snow
1:50 PM 21.2 °F 9.5 °F 17.6 °F 86% 30.01 in 2.5 mi WNW 11.5 mph - 0.00 in Snow Light Snow
1:53 PM 21.0 °F 9.9 °F 17.1 °F 85% 30.04 in 2.5 mi WNW 10.4 mph - 0.00 in Snow Light Snow
2:01 PM 21.2 °F 10.1 °F 17.6 °F 86% 30.01 in 3.0 mi WNW 10.4 mph - 0.00 in Snow Light Snow
2:53 PM 19.9 °F 12.1 °F 17.1 °F 89% 30.06 in 3.0 mi NW 5.8 mph - 0.00 in Snow Light Snow
3:00 PM 21.2 °F 12.6 °F 17.6 °F 86% 30.04 in 4.0 mi NNW 6.9 mph - 0.00 in Snow Light Snow
3:07 PM 19.4 °F 9.5 °F 15.8 °F 86% 30.04 in 4.0 mi NNW 8.1 mph - 0.00 in   Overcast
3:14 PM 19.4 °F 10.4 °F 15.8 °F 86% 30.05 in 5.0 mi NNW 6.9 mph - 0.00 in   Overcast
3:29 PM 19.4 °F 9.5 °F 15.8 °F 86% 30.06 in 5.0 mi NNW 8.1 mph - 0.00 in   Overcast
3:53 PM 19.9 °F 11.1 °F 16.0 °F 85% 30.11 in 5.0 mi NW 6.9 mph - 0.00 in   Overcast
4:21 PM 19.4 °F 9.5 °F 15.8 °F 86% 30.10 in 2.5 mi NW 8.1 mph - 0.00 in Snow Light Snow
4:45 PM 19.4 °F 8.6 °F 15.8 °F 86% 30.13 in 3.0 mi North 9.2 mph - 0.00 in Snow Light Snow
4:53 PM 19.0 °F 9.0 °F 15.1 °F 85% 30.17 in 5.0 mi North 8.1 mph - 0.00 in   Overcast
5:25 PM 19.4 °F 14.3 °F 15.8 °F 86% 30.16 in 2.0 mi North 3.5 mph - 0.00 in Snow Light Snow
5:35 PM 19.4 °F 10.4 °F 15.8 °F 86% 30.17 in 1.8 mi NNW 6.9 mph - 0.00 in Snow Light Snow
5:44 PM 17.6 °F 6.4 °F 14.0 °F 86% 30.17 in 3.0 mi North 9.2 mph - 0.00 in Snow Light Snow
5:53 PM 18.0 °F 8.7 °F 14.0 °F 84% 30.22 in 3.0 mi North 6.9 mph - 0.00 in Snow Light Snow
5:55 PM 17.6 °F 9.3 °F 14.0 °F 86% 30.18 in 2.5 mi North 5.8 mph - 0.00 in Snow Light Snow
6:07 PM 15.8 °F 8.6 °F 12.2 °F 86% 30.19 in 4.0 mi North 4.6 mph - 0.00 in Snow Light Snow
6:35 PM 12.2 °F 6.1 °F 10.4 °F 92% 30.21 in 6.0 mi North 3.5 mph - 0.00 in   Scattered Clouds
6:53 PM 12.0 °F - 10.0 °F 92% 30.26 in 4.0 mi Calm Calm - 0.00 in   Scattered Clouds
7:18 PM 12.2 °F - 10.4 °F 92% 30.24 in 2.5 mi Calm Calm - N/A   Partly Cloudy
7:33 PM 12.2 °F - 8.6 °F 85% 30.25 in 1.5 mi Calm Calm - N/A   Clear
7:53 PM 10.9 °F - 9.0 °F 92% 30.30 in 1.5 mi Calm Calm - N/A   Partly Cloudy
8:00 PM 8.6 °F 2.0 °F 8.6 °F 100% 30.27 in 0.5 mi West 3.5 mph - N/A Fog Light Freezing Fog
8:53 PM 8.1 °F - 7.0 °F 95% 30.32 in 8.0 mi Calm Calm - N/A   Clear
9:53 PM 9.0 °F - 5.0 °F 84% 30.37 in 8.0 mi Calm Calm - N/A   Clear
10:53 PM 6.1 °F -4.3 °F 3.0 °F 87% 30.40 in 10.0 mi WSW 5.8 mph - N/A   Clear
11:53 PM 6.1 °F - 3.0 °F 87% 30.40 in 10.0 mi Calm Calm - N/A   Clear